Regional Weather Roundup
Issued by NWS

Home | Current Version | Previous Version | Text Only | Print | Product List | Glossary On
Versions: 1 2 3 4 5 6 7 8 9 10 11 12 13 14 15 16 17 18 19 20 21 22 23 24 25 26 27 28 29 30 31 32 33 34 35 36 37 38 39 40 41 42 43 44 45 46 47 48 49 50
000
ASUS44 KOUN 201400
RWROK

WEATHER ROUNDUP FOR OKLAHOMA
NATIONAL WEATHER SERVICE NORMAN OK
900 AM CDT MON OCT 20 2014

NOTE: "FAIR" INDICATES FEW OR NO CLOUDS BELOW 12,000 FEET WITH NO
      SIGNIFICANT WEATHER AND/OR OBSTRUCTIONS TO VISIBILITY.

OKZ001>007-009>012-014-015-017-201500-
NORTHWEST OKLAHOMA AND THE PANHANDLE

CITY           SKY/WX    TMP DP  RH WIND       PRES   REMARKS
GAGE           SUNNY     56  56 100 W7        30.07R FOG
$$

OKZ016-021>023-033>039-044-045-201500-
SOUTHWEST OKLAHOMA

CITY           SKY/WX    TMP DP  RH WIND       PRES   REMARKS
LAWTON/REGL    CLOUDY    59  56  89 SE3       30.08R FOG
LAWTON/FT SILL PTSUNNY   58  58  98 S5        30.07R
FREDERICK      PTSUNNY   61  58  90 CALM      30.05R FOG
CLINTON        MOSUNNY   61  59  93 SW12      30.08R FOG
HOBART         SUNNY     61  59  93 S13       30.07R FOG
$$

OKZ018>020-024>031-201500-
CENTRAL OKLAHOMA

CITY           SKY/WX    TMP DP  RH WIND       PRES   REMARKS
OKLAHOMA CITY  PTSUNNY   60  56  86 S7        30.06R
OKC/WILEY POST MOSUNNY   63  57  81 SW14      30.06R
OKC/TINKER AFB SUNNY     60  55  83 S9        30.07R
STILLWATER     CLOUDY    61  55  81 E5        30.05R
GUTHRIE        MOSUNNY   64  58  80 SW7       30.05R
$$

OKZ008-013-054>072-201500-
NORTHEAST OKLAHOMA

CITY           SKY/WX    TMP DP  RH WIND       PRES   REMARKS
TULSA          PTSUNNY   58  54  86 S7        30.06R
TULSA/JONES    MOSUNNY   57  53  86 S6        30.08R
PONCA CITY     PTSUNNY   58  55  90 SE3       30.06R
BARTLESVILLE   CLOUDY    57  56  96 SE5       30.10R
MUSKOGEE       PTSUNNY   57  54  89 S6        30.11R
$$

OKZ032-040>043-046>053-073>077-201500-
SOUTH CENTRAL/SOUTHEAST OKLAHOMA

CITY           SKY/WX    TMP DP  RH WIND       PRES   REMARKS
MCALESTER      CLOUDY    60  51  72 VRB3      30.10R
$$




USA.gov is the U.S. government's official web portal to all federal, state and local government web resources and services.